Regional Weather Roundup
Issued by NWS Goodland, KS

Home | Current Version | Previous Version | Text Only | Print | Product List | Glossary Off
Versions: 1 2 3 4 5 6 7 8 9 10 11 12 13 14 15 16 17 18 19 20 21 22 23 24 25 26 27 28 29 30 31 32 33 34 35 36 37 38 39 40 41 42 43 44 45 46 47 48 49 50

000
ASUS43 KGLD 280608
RWRGLD

GOODLAND FORECAST AREA HOURLY WEATHER ROUNDUP
NATIONAL WEATHER SERVICE GOODLAND KS
1100 PM MST FRI FEB 27 2015

...OFFICIAL OBSERVATIONS...

CITY           SKY/WX    TMP DP  RH WIND       PRES   REMARKS
GOODLAND KS    FLURRIES  11   7  84 S17       30.15F WCI  -6
HILL CITY KS   CLOUDY    15   7  70 S12       30.34S WCI   2
IMPERIAL NEB     N/A     14   6  70 S14       30.16F WCI  -1
MCCOOK NEB     CLOUDY    18   6  59 S14       30.26F WCI   4
AKRON CO       PTCLDY     8   4  83 S13       29.99F WCI  -8
BURLINGTON CO  CLOUDY    10   5  80 S16       30.09S WCI  -7
LIMON CO       CLOUDY     5   2  87 S15G23    29.98S FOG     WCI -13
$$

...UNOFFICIAL OBSERVATIONS...

CITY           SKY/WX    TMP DP  RH WIND       PRES   REMARKS
COLBY KS       FLURRIES  14  12  92 SE13      30.21F WCI   0
GOVE KS          N/A     14  32 100 MISG        N/A
LENORA KS        N/A     13  32 100 S12         N/A  WCI  -1
NORTON KS      FLURRIES  16   7  67 S12       30.30S WCI   3
SHARON SPRINGS   N/A     11   8  87 S15         N/A  WCI  -5
KIT CARSON CO    N/A      9   6  86 MISG        N/A
YUMA CO          N/A     10   4  77 SE7         N/A
$$


USA.gov is the U.S. government's official web portal to all federal, state and local government web resources and services.